Temp
-11 -11 -11 -11 -11 -11 -11 -11 -11 -12 -12 -12 -12 -12 -12 -12 -13 -12 -13 -13 -13 -13 -13 -13 -13 -13 -13 -14 -13 -14 -14 -14 -14 -13 -13 -13 -12 -13 -13 -12 -12 -12 -12
-11 -11 -11 -11 -11 -11 -11 -11 -11 -12 -12 -12 -12 -12 -12 -12 -13 -13 -13 -13 -13 -12 -13 -13 -13 -13 -13 -13 -14 -14 -14 -14 -14 -13 -13 -13 -13 -13 -12 -12 -12 -11 -11
-10 -10 -11 -11 -11 -11 -11 -11 -11 -12 -12 -12 -12 -12 -12 -12 -12 -13 -13 -13 -13 -13 -13 -13 -12 -13 -13 -14 -14 -14 -14 -13 -13 -13 -13 -13 -13 -12 -12 -12 -12 -12 -12
-10 -10 -11 -11 -11 -11 -11 -11 -11 -12 -12 -12 -12 -12 -12 -12 -13 -13 -13 -13 -12 -13 -12 -12 -12 -13 -13 -13 -14 -13 -14 -13 -13 -13 -13 -13 -13 -13 -12 -12 -11 -11 -12
-10 -10 -11 -11 -11 -11 -11 -11 -11 -12 -12 -12 -12 -12 -12 -12 -13 -13 -13 -12 -12 -12 -12 -12 -12 -12 -12 -13 -13 -13 -13 -13 -13 -13 -13 -13 -13 -13 -12 -12 -12 -12 -11
-10 -10 -11 -11 -11 -11 -11 -11 -11 -11 -12 -12 -12 -12 -12 -12 -13 -13 -13 -12 -12 -12 -12 -12 -12 -12 -12 -12 -12 -13 -13 -13 -13 -13 -13 -13 -12 -12 -12 -12 -12 -12 -11
-10 -11 -11 -11 -11 -11 -11 -11 -11 -11 -12 -12 -12 -12 -12 -12 -12 -13 -13 -13 -12 -12 -12 -12 -12 -12 -12 -12 -12 -12 -12 -12 -13 -12 -12 -12 -12 -12 -12 -12 -12 -12 -12
-11 -11 -11 -11 -11 -11 -11 -11 -11 -12 -12 -11 -12 -12 -12 -12 -12 -12 -12 -12 -12 -12 -12 -12 -11 -11 -11 -11 -11 -11 -11 -11 -12 -12 -12 -12 -12 -12 -12 -12 -12 -13 -13
-11 -11 -11 -11 -12 -11 -11 -12 -11 -11 -11 -11 -11 -12 -12 -11 -12 -11 -12 -12 -12 -12 -12 -12 -11 -11 -11 -11 -11 -11 -11 -11 -11 -11 -11 -12 -12 -12 -12 -12 -13 -12 -12
-11 -11 -11 -11 -12 -12 -12 -11 -11 -11 -11 -11 -11 -11 -11 -11 -11 -11 -12 -12 -12 -12 -12 -12 -12 -11 -11 -12 -12 -12 -12 -12 -11 -11 -11 -11 -12 -12 -13 -12 -13 -13 -13
-11 -11 -11 -11 -11 -12 -12 -11 -11 -11 -11 -11 -11 -11 -11 -11 -11 -11 -11 -11 -11 -12 -12 -12 -11 -11 -11 -12 -11 -11 -12 -12 -12 -12 -11 -12 -12 -13 -13 -13 -13 -13 -13
-11 -11 -11 -11 -11 -11 -12 -11 -12 -11 -11 -11 -11 -12 -11 -11 -11 -11 -11 -11 -11 -11 -11 -11 -11 -11 -11 -11 -12 -12 -11 -12 -12 -12 -12 -13 -13 -13 -13 -13 -13 -13 -13
-11 -11 -11 -11 -11 -12 -12 -12 -12 -12 -12 -12 -12 -12 -11 -11 -12 -12 -12 -12 -11 -11 -10 -10 -10 -10 -11 -11 -11 -11 -12 -12 -12 -12 -12 -13 -13 -13 -13 -13 -13 -14 -13
-12 -11 -12 -11 -12 -12 -12 -12 -12 -13 -13 -13 -12 -11 -11 -11 -12 -12 -12 -12 -11 -11 -11 -12 -11 -11 -11 -12 -12 -12 -12 -12 -13 -13 -13 -13 -13 -14 -14 -13 -14 -14 -14
-12 -12 -12 -12 -12 -12 -12 -12 -12 -12 -12 -13 -13 -12 -11 -11 -13 -13 -13 -13 -13 -12 -12 -12 -12 -13 -13 -13 -13 -13 -13 -13 -13 -13 -14 -14 -14 -14 -13 -13 -13 -13 -13
-12 -12 -12 -12 -12 -12 -12 -12 -12 -12 -12 -12 -12 -12 -12 -12 -12 -12 -12 -12 -12 -12 -12 -13 -13 -13 -13 -13 -13 -13 -13 -13 -13 -13 -13 -13 -13 -13 -13 -13 -14 -14 -14
-12 -12 -12 -12 -12 -12 -12 -12 -12 -12 -12 -12 -12 -12 -12 -12 -12 -12 -12 -12 -12 -12 -12 -12 -12 -12 -12 -12 -12 -13 -13 -13 -13 -13 -13 -13 -13 -14 -14 -14 -13 -13 -13
-12 -12 -12 -12 -12 -12 -12 -12 -13 -13 -13 -12 -12 -13 -13 -13 -13 -13 -13 -13 -13 -13 -13 -13 -13 -13 -13 -13 -13 -13 -13 -14 -14 -13 -13 -14 -13 -13 -13 -13 -13 -14 -14
-12 -12 -12 -12 -12 -12 -12 -13 -13 -13 -13 -13 -13 -13 -13 -13 -13 -13 -13 -13 -13 -13 -13 -13 -13 -13 -13 -13 -13 -13 -13 -13 -13 -13 -13 -14 -13 -13 -13 -13 -13 -14 -14
-12 -12 -12 -11 -11 -12 -12 -12 -13 -13 -13 -13 -13 -13 -13 -13 -13 -13 -13 -13 -13 -13 -13 -13 -13 -13 -13 -13 -13 -13 -13 -13 -14 -14 -14 -14 -14 -14 -14 -14 -14 -14 -14
-12 -12 -12 -11 -11 -11 -12 -12 -12 -12 -12 -12 -12 -12 -12 -13 -13 -13 -13 -13 -13 -13 -13 -13 -13 -13 -13 -13 -13 -14 -14 -14 -14 -14 -14 -14 -14 -14 -14 -14 -14 -14 -14
-12 -12 -12 -12 -11 -12 -11 -12 -12 -12 -12 -12 -12 -12 -12 -12 -13 -13 -13 -13 -13 -13 -13 -13 -13 -13 -13 -13 -13 -13 -14 -14 -13 -13 -13 -13 -13 -13 -14 -14 -14 -14 -14
-12 -12 -12 -12 -12 -12 -12 -12 -12 -12 -12 -12 -12 -12 -12 -12 -12 -12 -12 -12 -12 -13 -13 -13 -13 -13 -13 -13 -13 -13 -13 -13 -13 -13 -14 -14 -14 -14 -14 -14 -14 -14 -14
-13 -12 -12 -12 -12 -12 -12 -12 -12 -12 -12 -12 -12 -12 -12 -12 -12 -12 -12 -12 -12 -12 -13 -13 -13 -13 -13 -13 -13 -13 -13 -14 -14 -14 -14 -14 -14 -14 -14 -14 -14 -14 -14
-13 -13 -12 -12 -12 -12 -12 -12 -12 -12 -12 -12 -12 -13 -12 -12 -12 -12 -13 -13 -13 -13 -13 -13 -13 -13 -13 -13 -13 -13 -13 -14 -14 -14 -14 -14 -14 -13 -13 -13 -14 -14 -14
-13 -13 -13 -13 -13 -13 -13 -12 -12 -12 -12 -12 -12 -12 -13 -13 -13 -13 -13 -13 -13 -12 -12 -12 -13 -13 -13 -13 -13 -13 -13 -13 -13 -13 -13 -13 -13 -14 -14 -14 -14 -14 -14
Height
5728 5726 5725 5724 5721 5719 5717 5714 5711 5709 5706 5706 5705 5704 5703 5702 5701 5700 5698 5696 5694 5693 5691 5691 5692 5693 5692 5693 5695 5697 5700 5704 5708 5712 5718 5724 5729 5734 5740 5745 5751 5754 5759
5724 5723 5722 5719 5718 5716 5714 5712 5710 5707 5706 5705 5704 5703 5703 5702 5701 5699 5697 5695 5694 5692 5692 5690 5689 5691 5693 5693 5694 5696 5699 5703 5707 5713 5717 5723 5729 5735 5740 5744 5749 5753 5757
5721 5720 5719 5717 5715 5712 5711 5710 5707 5706 5704 5703 5704 5703 5702 5702 5701 5698 5697 5695 5693 5691 5689 5688 5689 5689 5691 5692 5695 5697 5699 5703 5707 5712 5718 5722 5728 5734 5739 5744 5748 5754 5758
5718 5717 5716 5714 5711 5710 5708 5707 5706 5704 5702 5702 5702 5703 5702 5702 5701 5699 5697 5696 5694 5692 5689 5690 5690 5689 5690 5692 5695 5698 5701 5704 5709 5714 5720 5724 5729 5733 5738 5743 5747 5753 5757
5716 5715 5713 5710 5707 5706 5705 5705 5703 5702 5700 5701 5700 5701 5702 5702 5702 5700 5698 5697 5696 5695 5693 5692 5692 5690 5690 5692 5695 5699 5703 5707 5711 5716 5721 5725 5729 5733 5737 5742 5747 5752 5756
5714 5713 5710 5707 5705 5703 5703 5702 5701 5700 5699 5698 5698 5700 5702 5702 5703 5702 5700 5699 5698 5697 5696 5695 5694 5693 5693 5694 5695 5699 5704 5709 5714 5718 5720 5725 5729 5733 5738 5743 5748 5753 5758
5712 5710 5708 5706 5704 5702 5701 5700 5699 5698 5698 5697 5696 5699 5702 5703 5703 5703 5702 5701 5701 5700 5699 5698 5697 5696 5696 5696 5698 5699 5703 5709 5713 5717 5721 5726 5731 5736 5741 5744 5748 5753 5757
5711 5709 5707 5705 5703 5702 5700 5698 5697 5696 5696 5696 5696 5700 5702 5703 5704 5704 5704 5704 5703 5702 5702 5701 5701 5701 5701 5701 5702 5704 5707 5710 5715 5718 5723 5728 5733 5737 5741 5746 5750 5755 5759
5710 5708 5707 5705 5704 5702 5699 5698 5695 5694 5693 5693 5695 5699 5701 5703 5705 5705 5706 5706 5705 5705 5705 5704 5705 5706 5707 5708 5709 5711 5714 5717 5719 5722 5726 5730 5734 5738 5744 5749 5754 5759 5762
5709 5708 5707 5706 5705 5702 5700 5698 5695 5693 5691 5691 5694 5698 5702 5704 5705 5706 5707 5708 5708 5708 5709 5709 5709 5710 5713 5714 5715 5717 5720 5723 5726 5728 5731 5733 5737 5743 5748 5752 5757 5759 5763
5709 5708 5707 5707 5705 5704 5702 5699 5696 5694 5692 5693 5696 5698 5701 5704 5706 5707 5708 5709 5709 5710 5711 5712 5714 5716 5717 5719 5721 5723 5724 5729 5732 5734 5735 5738 5742 5747 5751 5754 5758 5761 5764
5708 5708 5708 5707 5706 5706 5703 5699 5697 5696 5697 5697 5698 5699 5701 5705 5706 5708 5709 5710 5711 5712 5713 5713 5716 5718 5720 5722 5725 5726 5729 5731 5735 5736 5739 5742 5746 5750 5754 5757 5760 5762 5764
5709 5708 5708 5708 5708 5708 5705 5703 5701 5700 5700 5700 5700 5702 5704 5706 5708 5710 5712 5712 5712 5712 5713 5715 5717 5720 5722 5724 5727 5730 5732 5734 5737 5740 5742 5746 5748 5752 5756 5758 5760 5762 5765
5709 5709 5709 5709 5710 5710 5710 5708 5706 5703 5704 5704 5704 5704 5705 5708 5710 5713 5714 5715 5714 5715 5715 5717 5719 5722 5724 5727 5730 5733 5735 5737 5739 5742 5745 5748 5751 5755 5757 5759 5761 5763 5764
5710 5710 5711 5712 5713 5713 5713 5713 5712 5711 5711 5711 5709 5709 5707 5708 5713 5717 5719 5719 5721 5721 5722 5724 5724 5725 5727 5731 5734 5737 5739 5741 5744 5746 5749 5752 5755 5757 5759 5761 5763 5764 5765
5710 5711 5713 5714 5716 5716 5717 5717 5718 5717 5717 5718 5716 5717 5717 5719 5721 5723 5725 5726 5728 5728 5729 5730 5731 5733 5735 5737 5740 5743 5745 5747 5748 5751 5752 5754 5756 5758 5760 5763 5764 5765 5764
5710 5712 5714 5716 5717 5719 5720 5721 5722 5722 5722 5723 5722 5722 5724 5725 5727 5728 5730 5731 5732 5733 5734 5735 5737 5739 5740 5742 5744 5745 5747 5749 5750 5752 5754 5756 5758 5760 5761 5762 5762 5762 5762
5710 5712 5714 5717 5719 5721 5722 5723 5724 5726 5726 5727 5727 5728 5728 5730 5731 5732 5734 5735 5736 5737 5738 5739 5740 5742 5743 5745 5747 5748 5750 5752 5754 5755 5756 5757 5759 5760 5760 5760 5760 5760 5759
5710 5711 5714 5717 5719 5722 5723 5725 5726 5728 5729 5730 5731 5732 5733 5734 5735 5736 5737 5738 5739 5740 5741 5742 5743 5744 5746 5748 5750 5751 5753 5754 5755 5756 5757 5758 5758 5758 5759 5759 5759 5758 5757
5709 5711 5713 5716 5719 5721 5724 5726 5728 5729 5730 5732 5733 5735 5736 5737 5738 5739 5740 5741 5742 5743 5744 5744 5745 5746 5748 5750 5751 5752 5753 5754 5754 5755 5755 5756 5756 5756 5756 5756 5756 5754 5753
5706 5709 5712 5714 5717 5720 5722 5725 5727 5729 5731 5732 5734 5735 5737 5738 5739 5740 5741 5743 5744 5744 5746 5747 5748 5749 5750 5750 5751 5752 5753 5753 5754 5754 5754 5753 5754 5754 5754 5754 5753 5751 5747
5703 5706 5710 5713 5715 5717 5720 5722 5724 5726 5728 5730 5732 5734 5735 5737 5738 5739 5741 5742 5743 5744 5745 5746 5747 5748 5748 5749 5750 5751 5751 5751 5751 5752 5752 5752 5750 5749 5748 5747 5746 5745 5743
5700 5704 5706 5709 5712 5714 5717 5719 5721 5722 5724 5726 5728 5730 5732 5733 5735 5737 5738 5739 5740 5741 5742 5743 5744 5744 5745 5745 5746 5746 5747 5747 5746 5746 5746 5744 5743 5742 5741 5740 5739 5737 5735
5693 5698 5702 5704 5706 5709 5711 5714 5716 5718 5720 5721 5722 5724 5727 5728 5729 5731 5733 5734 5735 5736 5737 5738 5739 5739 5739 5740 5740 5741 5741 5740 5740 5740 5739 5738 5737 5735 5733 5731 5729 5727 5725
5687 5691 5695 5699 5702 5703 5705 5707 5709 5711 5713 5716 5718 5719 5719 5722 5724 5725 5726 5727 5728 5729 5730 5731 5732 5732 5732 5732 5733 5733 5732 5732 5731 5730 5729 5728 5728 5727 5725 5724 5721 5719 5718
5681 5685 5687 5690 5693 5696 5699 5701 5703 5704 5706 5709 5712 5714 5715 5716 5716 5718 5719 5721 5721 5721 5722 5724 5724 5725 5725 5725 5725 5725 5725 5724 5723 5722 5720 5720 5719 5719 5717 5715 5713 5711 5709
Wind_Speed
15 15 16 16 19 18 12 10 12 12 10 8 6 5 3 2 3 6 5 7 3 4 5 7 8 9 11 12 12 13 16 18 20 22 20 27 23 22 22 23 23 16 25
14 14 15 17 17 13 9 9 13 13 9 6 5 2 1 3 5 5 5 8 4 6 4 3 6 15 10 11 8 15 18 19 22 20 25 26 23 20 22 29 19 14 24
12 13 14 16 13 10 9 11 14 13 9 5 4 2 2 5 4 7 8 4 5 4 0 3 3 12 19 15 14 17 20 21 23 26 26 25 24 23 24 25 23 20 14
12 13 15 13 11 9 8 10 10 11 9 5 5 6 2 2 5 8 6 6 8 12 12 7 5 2 8 16 17 18 20 22 24 24 22 23 24 23 21 21 23 19 16
11 13 14 12 10 10 8 9 10 11 10 6 9 5 3 2 3 5 9 4 6 11 11 10 10 8 8 12 17 19 20 21 23 23 22 22 19 19 18 18 18 20 22
11 11 8 6 6 5 5 7 7 7 8 7 10 6 4 5 6 7 9 6 7 9 9 7 8 10 12 13 18 21 24 22 22 19 19 17 20 19 22 23 23 24 23
8 6 5 6 7 7 6 4 6 7 5 4 11 9 7 8 8 4 10 10 9 9 8 8 11 12 13 15 18 21 24 25 26 23 18 22 27 30 26 27 28 26 22
6 2 3 5 7 8 6 4 6 6 4 4 9 11 8 12 7 5 6 8 8 9 8 10 13 16 16 18 22 23 27 29 29 27 30 29 28 27 27 25 27 28 23
3 1 2 3 6 6 8 8 7 5 4 3 8 12 10 11 5 4 5 7 7 7 6 10 16 19 19 20 22 20 23 26 29 30 30 28 26 25 27 25 24 19 12
2 3 2 4 6 8 10 11 8 8 7 9 11 14 12 8 6 6 5 6 7 8 7 6 7 12 12 16 17 19 16 19 25 25 25 28 30 30 26 23 19 18 25
2 4 4 4 5 7 9 12 8 11 13 13 12 14 13 9 8 8 7 6 6 7 7 5 6 6 9 15 14 19 21 21 23 23 26 29 28 29 21 17 18 20 20
2 3 4 4 3 7 11 12 10 14 13 8 9 11 13 13 12 11 10 8 7 5 5 6 10 10 11 14 16 18 23 25 25 27 27 26 23 20 25 26 22 17 14
2 3 5 5 4 7 13 15 14 11 12 12 14 14 12 12 11 11 11 12 7 9 13 12 14 14 13 14 18 24 21 24 26 25 21 26 28 28 23 19 16 13 10
3 4 6 5 6 9 13 17 21 26 23 20 14 12 12 14 13 12 10 7 15 15 17 19 18 17 16 21 21 19 17 21 24 30 31 27 25 22 19 15 11 7 4
7 7 9 9 11 15 15 16 18 20 22 25 26 25 20 18 16 18 24 29 26 26 24 22 27 31 28 24 23 25 27 28 26 27 26 23 20 18 15 11 7 3 2
10 11 11 12 15 17 16 17 18 19 21 21 24 25 27 26 26 23 21 19 19 19 19 21 21 20 23 23 23 23 23 23 23 22 20 18 15 12 8 6 4 2 2
10 11 12 13 13 12 13 12 13 13 12 13 15 19 20 21 19 19 16 15 15 16 16 17 16 15 15 15 15 17 17 18 19 17 14 12 10 6 3 1 2 4 7
12 12 13 13 13 11 9 9 12 11 12 13 15 17 18 18 19 18 17 15 13 14 15 16 15 12 11 11 11 12 14 15 12 9 7 4 2 2 3 4 6 8 10
13 13 13 13 13 11 10 7 7 8 9 11 11 11 11 12 12 12 12 11 12 13 13 13 14 14 14 13 11 10 9 7 6 5 4 4 3 5 7 7 7 8 12
13 13 14 14 13 12 12 11 9 7 5 7 8 7 8 8 7 7 7 8 8 9 10 11 11 11 9 7 5 4 4 5 6 6 6 7 8 9 11 11 12 13 15
16 15 15 15 15 14 13 12 11 10 9 8 6 5 4 5 4 3 5 6 5 5 5 5 7 7 7 5 6 7 7 6 7 8 9 11 13 14 15 15 15 16 18
19 18 17 16 16 15 14 13 13 13 13 11 10 9 7 5 5 5 5 5 5 5 5 4 5 6 7 8 9 10 12 12 13 13 13 13 14 17 19 20 20 20 22
17 18 19 19 18 17 17 17 16 16 16 16 15 14 12 12 11 10 10 9 8 8 9 10 10 11 12 13 14 14 13 14 16 16 16 18 20 22 23 24 26 26 26
22 19 19 20 21 20 20 21 20 20 20 20 19 18 17 17 16 15 15 15 14 14 13 13 13 14 15 17 17 17 17 18 18 18 20 21 23 25 27 28 29 31 31
29 27 25 23 22 21 21 22 22 22 21 22 22 22 23 21 20 20 20 19 19 19 19 19 19 19 18 19 19 20 21 22 22 23 24 24 25 26 28 29 32 33 33
32 30 32 30 28 27 26 25 24 25 24 23 22 22 24 25 25 24 23 23 24 24 22 21 22 22 22 22 22 22 23 25 26 28 28 28 29 30 30 32 34 35 35
Wind_Direction
295 294 296 301 308 308 317 321 344 341 330 294 300 315 338 347 333 349 354 10 325 302 270 261 212 171 167 187 188 184 184 189 186 186 189 188 182 188 186 184 182 201 203
292 290 298 301 301 302 300 312 345 340 324 283 286 76 345 308 332 341 339 326 296 297 312 336 216 188 179 171 178 179 178 178 174 179 173 181 180 181 184 184 174 187 181
282 291 295 299 298 303 288 303 314 324 314 288 250 166 275 347 343 322 317 350 9 24 297 191 84 185 182 179 167 164 166 166 169 168 174 175 174 176 188 195 199 207 198
284 293 299 297 298 292 303 305 309 315 318 248 236 225 198 59 57 46 69 79 71 55 79 84 67 43 184 173 171 167 169 163 164 166 170 170 175 182 188 194 198 199 197
291 297 298 293 291 289 273 301 305 318 326 234 224 231 238 135 109 32 50 80 86 75 59 70 72 63 125 178 175 175 170 167 164 164 167 173 183 185 183 181 181 189 191
288 305 307 335 352 341 312 310 295 305 330 250 215 218 195 171 128 68 49 121 92 79 64 62 54 83 111 123 162 169 172 166 156 162 178 177 166 163 161 162 175 176 169
296 314 1 8 13 5 357 314 289 300 332 251 214 194 180 176 153 135 81 91 109 96 59 70 89 104 107 123 133 150 155 157 162 162 157 146 148 154 154 157 161 155 153
297 334 357 8 16 23 22 338 296 291 307 339 218 181 185 173 169 139 114 84 103 86 52 83 104 113 107 108 127 133 140 147 146 148 152 155 156 155 157 157 148 152 159
278 47 25 12 30 33 37 19 356 348 308 247 200 175 176 180 185 175 129 84 78 86 70 78 122 118 110 105 112 118 130 142 141 146 148 150 146 145 145 144 150 151 152
155 93 74 50 50 45 35 27 40 44 41 162 166 168 171 176 170 176 147 98 87 100 108 97 97 126 121 117 120 115 119 135 141 138 144 144 139 139 140 143 142 134 127
118 98 85 69 53 39 35 27 35 63 67 109 138 159 171 167 158 165 145 126 122 128 120 115 113 120 141 132 133 132 131 139 146 149 147 139 141 143 137 141 142 142 140
78 62 80 77 67 48 40 29 84 89 82 113 148 152 145 137 131 145 143 126 125 156 167 145 137 130 133 144 144 146 141 144 143 138 135 138 142 146 129 136 144 147 149
115 66 96 110 94 73 62 76 85 97 98 106 118 131 139 135 133 136 123 115 86 120 142 140 141 143 140 137 146 145 140 145 151 143 131 139 136 134 141 145 149 152 141
128 94 106 110 104 94 89 91 84 86 90 96 103 128 146 145 146 127 113 98 94 108 125 133 143 143 147 151 148 151 153 151 144 132 130 136 142 144 144 144 138 134 95
133 117 113 108 107 102 99 94 91 92 93 91 95 89 100 127 137 116 114 110 107 108 112 123 121 110 110 121 128 125 131 131 135 137 139 141 141 140 134 119 125 154 212
134 128 120 120 118 109 99 94 91 89 91 92 94 94 97 96 101 103 103 104 107 107 108 108 109 115 122 127 127 129 134 135 133 133 135 139 135 131 138 159 181 212 278
146 138 136 136 134 123 112 102 94 96 102 100 97 101 105 110 110 110 109 108 108 109 108 107 111 116 119 122 128 133 134 134 135 138 139 146 158 161 157 225 290 324 324
160 156 152 153 153 147 129 111 102 97 99 108 110 105 101 101 100 100 101 104 110 109 105 107 115 122 125 129 132 132 138 141 144 143 144 154 172 252 277 307 315 309 305
174 172 168 168 173 173 164 152 135 124 115 114 116 117 117 116 116 113 110 105 100 101 121 126 128 128 128 126 125 126 134 147 162 178 210 229 258 283 289 282 278 286 294
185 185 182 180 179 186 190 191 193 185 169 147 145 145 141 137 137 130 114 110 117 117 120 131 139 140 128 122 134 152 181 201 205 211 231 246 250 256 262 274 285 290 295
190 191 197 194 193 190 188 198 206 208 205 207 199 178 152 142 147 160 169 155 150 145 133 141 177 191 208 232 242 241 244 259 268 275 279 280 279 276 277 280 288 301 303
197 196 197 206 206 208 209 210 212 215 221 223 222 225 227 227 220 218 217 208 215 232 238 231 235 245 258 264 268 273 281 288 292 291 293 294 292 288 288 288 288 288 293
213 204 201 204 212 214 216 215 219 230 236 234 232 232 234 235 234 233 235 237 236 235 241 250 254 253 253 257 260 264 274 276 274 275 279 285 290 290 289 291 291 293 296
224 222 218 210 208 214 217 220 221 222 227 236 243 241 232 234 236 236 239 241 238 238 241 245 248 249 250 252 255 256 260 265 269 271 272 276 281 285 289 294 296 296 297
223 228 231 231 232 231 228 224 222 220 221 228 233 239 247 242 236 236 237 237 238 238 237 240 246 248 247 247 247 250 255 262 267 271 276 281 286 289 290 291 291 290 292
220 226 228 230 233 233 233 236 235 236 231 230 234 236 237 240 246 251 247 242 244 247 252 252 248 249 254 259 263 267 273 276 279 282 285 290 294 291 290 293 293 291 289